CW5022 Weather Reports


time (UTC)temp
C
wind
direction
speed
KPH
gust
KPH
rain 1hr
cm
rain 24hr
cm
rain mn
cm
humidity
%
barometer
mb
20260507043204 13 276 0.0 0.0 0.00 0.00 0.00 82 1019.8
20260507042703 13 278 0.0 3.2 0.00 0.00 0.00 81 1019.8
20260507042207 13 278 0.0 0.0 0.00 0.00 0.00 81 1019.7
20260507041703 13 290 0.0 0.0 0.00 0.00 0.00 81 1019.8
20260507041204 13 290 0.0 0.0 0.00 0.00 0.00 81 1019.7
20260507040704 13 290 0.0 3.2 0.00 0.00 0.00 81 1019.8
20260507040204 13 279 0.0 3.2 0.00 0.00 0.00 81 1019.7
20260507035704 13 279 0.0 0.0 0.00 0.00 0.00 80 1019.7
20260507035205 13 279 0.0 0.0 0.00 0.00 0.00 80 1019.7
20260507034704 13 280 0.0 3.2 0.00 0.00 0.00 80 1019.6
20260507034204 13 282 0.0 3.2 0.00 0.00 0.00 80 1019.6
20260507033704 13 282 0.0 0.0 0.00 0.00 0.00 80 1019.5
20260507033204 13 282 0.0 3.2 0.00 0.00 0.00 80 1019.5
20260507032704 13 303 0.0 3.2 0.00 0.00 0.00 80 1019.5
20260507032203 13 303 0.0 0.0 0.00 0.00 0.00 80 1019.5
20260507031204 13 92 0.0 0.0 0.00 0.00 0.00 80 1019.4
20260507030705 13 92 0.0 1.6 0.00 0.00 0.00 80 1019.4
20260507025704 13 92 0.0 0.0 0.00 0.00 0.00 79 1019.3
20260507025204 13 92 0.0 0.0 0.00 0.00 0.00 79 1019.3
20260507024704 13 92 0.0 0.0 0.00 0.00 0.00 79 1019.2
20260507024204 13 92 0.0 0.0 0.00 0.00 0.00 80 1019.2
20260507023703 13 92 0.0 0.0 0.00 0.00 0.00 79 1019.2
20260507023203 13 92 0.0 1.6 0.00 0.00 0.00 79 1019.2
20260507022705 13 305 0.0 3.2 0.00 0.00 0.00 79 1019.1
20260507022204 14 300 0.0 3.2 0.00 0.00 0.00 78 1019.1
20260507021704 14 119 0.0 1.6 0.00 0.00 0.00 79 1019.1
20260507021204 14 119 0.0 0.0 0.00 0.00 0.00 79 1019.0
20260507020704 14 119 0.0 1.6 0.00 0.00 0.00 78 1019.0
20260507015704 14 88 0.0 1.6 0.00 0.00 0.00 78 1019.0
20260507014704 14 116 0.0 3.2 0.00 0.00 0.00 78 1019.1
20260507014204 14 113 0.0 1.6 0.00 0.00 0.00 78 1019.1
20260507013704 14 131 0.0 3.2 0.00 0.00 0.00 79 1019.1
20260507013204 14 117 0.0 1.6 0.00 0.00 0.00 78 1019.1
20260507012203 14 278 0.0 3.2 0.00 0.00 0.00 78 1019.2
20260507011704 14 272 1.6 3.2 0.00 0.00 0.00 78 1019.2
20260507011204 14 269 1.6 3.2 0.00 0.00 0.00 78 1019.2
20260507010704 14 104 3.2 8.0 0.00 0.00 0.00 78 1019.2
20260507010203 14 116 0.0 1.6 0.00 0.00 0.00 78 1019.2
20260507005204 14 246 0.0 0.0 0.00 0.00 0.00 77 1019.3
20260507004704 14 251 0.0 3.2 0.00 0.00 0.00 77 1019.3
20260507003704 14 275 1.6 8.0 0.00 0.00 0.00 77 1019.3
20260507003204 14 274 4.8 8.0 0.00 0.00 0.00 76 1019.3
20260507002703 14 289 0.0 3.2 0.00 0.00 0.00 76 1019.3
20260507001705 14 293 3.2 8.0 0.00 0.00 0.00 76 1019.2
20260507001204 14 282 0.0 3.2 0.00 0.00 0.00 75 1019.3
20260507000205 14 67 0.0 1.6 0.00 0.00 0.00 76 1019.3
20260506235704 14 291 1.6 3.2 0.00 0.00 0.00 76 1019.3
20260506235204 14 280 4.8 9.7 0.00 0.00 0.00 75 1019.3
20260506234703 14 257 1.6 8.0 0.00 0.00 0.00 75 1019.3
20260506233704 15 300 3.2 8.0 0.00 0.00 0.00 74 1019.2
20260506233204 15 278 0.0 3.2 0.00 0.00 0.00 75 1019.3
20260506232704 15 271 1.6 3.2 0.00 0.00 0.00 74 1019.3
20260506232204 15 263 4.8 9.7 0.00 0.00 0.00 74 1019.3
20260506231704 15 228 0.0 8.0 0.00 0.00 0.00 74 1019.2
20260506231204 15 217 1.6 12.9 0.00 0.00 0.00 73 1019.3
20260506230203 15 223 4.8 8.0 0.00 0.00 0.00 74 1019.3
20260506225704 15 118 1.6 8.0 0.00 0.00 0.00 74 1019.3
20260506224704 14 113 1.6 8.0 0.00 0.00 0.00 75 1019.4
20260506224204 14 84 0.0 8.0 0.00 0.00 0.00 75 1019.4
20260506223703 14 166 4.8 12.9 0.00 0.00 0.00 74 1019.4
20260506223204 14 138 0.0 3.2 0.00 0.00 0.00 75 1019.4
20260506221703 14 285 0.0 8.0 0.00 0.00 0.00 76 1019.6
20260506221203 14 283 1.6 3.2 0.00 0.00 0.00 76 1019.6
20260506220204 14 274 1.6 3.2 0.00 0.00 0.00 77 1019.7
20260506215704 14 268 1.6 3.2 0.00 0.00 0.00 76 1019.7
20260506215203 14 239 3.2 9.7 0.00 0.00 0.00 77 1019.6
20260506214704 14 247 0.0 3.2 0.00 0.00 0.00 77 1019.7
20260506214204 14 199 1.6 3.2 0.00 0.00 0.00 78 1019.7
20260506213705 13 298 1.6 9.7 0.00 0.00 0.00 77 1019.7
20260506213203 14 264 1.6 9.7 0.00 0.00 0.00 76 1019.6
20260506212704 14 268 0.0 3.2 0.00 0.00 0.00 77 1019.7
20260506211703 14 276 0.0 3.2 0.00 0.00 0.00 78 1019.7
20260506211204 13 276 0.0 3.2 0.00 0.00 0.00 78 1019.6
20260506210703 13 260 0.0 3.2 0.00 0.00 0.00 78 1019.6
20260506210204 13 278 0.0 3.2 0.00 0.00 0.00 78 1019.7
20260506205703 13 247 1.6 3.2 0.00 0.00 0.00 78 1019.6
20260506205204 13 278 1.6 3.2 0.00 0.00 0.00 78 1019.6
20260506204703 13 288 1.6 9.7 0.00 0.00 0.00 79 1019.5
20260506203704 13 91 1.6 3.2 0.00 0.00 0.00 80 1019.6
20260506203204 13 100 1.6 3.2 0.00 0.00 0.00 79 1019.5
20260506202704 13 244 0.0 8.0 0.00 0.00 0.00 80 1019.5
20260506202204 13 107 0.0 3.2 0.00 0.00 0.00 81 1019.5
20260506201704 13 117 0.0 1.6 0.00 0.00 0.00 80 1019.5
20260506200704 13 72 1.6 8.0 0.00 0.00 0.00 81 1019.4
20260506200203 13 113 1.6 1.6 0.00 0.00 0.00 81 1019.5
20260506195704 13 147 0.0 8.0 0.00 0.00 0.00 82 1019.5
20260506195204 13 110 1.6 8.0 0.00 0.00 0.00 83 1019.5
20260506194703 13 215 3.2 8.0 0.00 0.00 0.00 83 1019.4
20260506194204 13 278 0.0 3.2 0.00 0.00 0.00 83 1019.4
20260506193704 13 278 0.0 3.2 0.00 0.00 0.00 83 1019.4
20260506193203 13 289 1.6 9.7 0.00 0.00 0.00 84 1019.4
20260506192704 13 262 0.0 3.2 0.00 0.00 0.00 84 1019.5
20260506192204 13 262 0.0 0.0 0.00 0.00 0.00 84 1019.3
20260506191703 13 260 0.0 3.2 0.00 0.00 0.00 84 1019.3
20260506190704 13 275 3.2 8.0 0.00 0.00 0.00 86 1019.2
20260506190204 13 296 1.6 3.2 0.00 0.00 0.00 86 1019.3
20260506185704 13 105 1.6 3.2 0.00 0.00 0.00 86 1019.3
20260506185204 13 109 0.0 1.6 0.00 0.00 0.00 86 1019.3
20260506184204 12 264 1.6 8.0 0.00 0.00 0.00 87 1019.3
20260506183704 12 269 3.2 3.2 0.00 0.00 0.00 88 1019.3
20260506183203 12 287 0.0 0.0 0.00 0.00 0.00 89 1019.3
20260506182704 12 287 0.0 3.2 0.00 0.00 0.00 89 1019.2
20260506182204 12 287 3.2 8.0 0.00 0.00 0.00 90 1019.3
20260506181704 12 285 0.0 3.2 0.00 0.00 0.00 90 1019.4
20260506181204 12 283 1.6 3.2 0.00 0.00 0.00 90 1019.4
20260506180705 12 284 0.0 3.2 0.00 0.00 0.00 90 1019.2
20260506175703 12 271 0.0 3.2 0.00 0.00 0.00 89 1018.9
20260506175204 12 131 0.0 3.2 0.00 0.00 0.00 89 1018.8
20260506174704 12 151 1.6 8.0 0.00 0.00 0.00 88 1018.9
20260506174204 12 269 0.0 3.2 0.00 0.00 0.00 88 1018.8
20260506173704 12 109 0.0 3.2 0.00 0.00 0.00 88 1019.0
20260506173205 12 134 6.4 12.9 0.00 0.00 0.00 88 1019.0
20260506172704 12 283 0.0 0.0 0.00 0.00 0.00 88 1019.1
20260506172204 12 121 0.0 0.0 0.00 0.00 0.00 89 1019.0
20260506171704 12 223 0.0 0.0 0.00 0.00 0.00 89 1019.1
20260506171204 12 233 0.0 0.0 0.00 0.00 0.00 89 1019.2
20260506170703 12 230 0.0 0.0 0.00 0.00 0.00 90 1019.1
20260506164704 12 282 0.0 3.2 0.00 0.00 0.00 89 1018.9
20260506164204 12 281 3.2 3.2 0.00 0.00 0.00 89 1019.0
20260506163205 12 263 1.6 3.2 0.00 0.00 0.00 90 1018.8
20260506162705 12 284 0.0 0.0 0.00 0.00 0.00 90 1018.7
20260506162204 12 290 1.6 3.2 0.00 0.00 0.00 90 1018.6
20260506161704 12 295 0.0 3.2 0.00 0.00 0.00 90 1018.6
20260506161204 12 295 0.0 0.0 0.00 0.00 0.00 91 1018.5
20260506160704 12 295 0.0 0.0 0.00 0.00 0.00 91 1018.4
20260506160204 12 272 0.0 0.0 0.00 0.00 0.00 91 1018.4
20260506155704 12 272 0.0 0.0 0.00 0.00 0.00 91 1018.4
20260506155204 12 272 0.0 3.2 0.00 0.00 0.00 90 1018.4
20260506154704 12 271 3.2 8.0 0.00 0.00 0.00 90 1018.4
20260506154204 12 98 0.0 1.6 0.00 0.00 0.00 90 1018.5
20260506153704 12 98 0.0 3.2 0.00 0.00 0.00 90 1018.6
20260506153204 12 205 0.0 9.7 0.00 0.00 0.00 89 1018.7
20260506152703 12 266 0.0 3.2 0.00 0.00 0.00 89 1018.7
20260506152204 12 288 0.0 3.2 0.00 0.00 0.00 89 1018.7
20260506151704 12 288 0.0 0.0 0.00 0.00 0.00 89 1018.6
20260506151204 12 289 0.0 3.2 0.00 0.00 0.00 89 1018.5
20260506150704 12 288 0.0 3.2 0.00 0.00 0.00 89 1018.4
20260506145703 12 233 0.0 3.2 0.00 0.00 0.00 89 1018.2
20260506144704 12 276 0.0 0.0 0.00 0.00 0.00 89 1018.3
20260506144204 12 279 0.0 0.0 0.00 0.00 0.00 89 1018.3
20260506143703 12 275 0.0 0.0 0.00 0.00 0.00 89 1018.4
20260506143204 12 275 0.0 0.0 0.00 0.00 0.00 89 1018.4
20260506142204 12 276 1.6 3.2 0.00 0.00 0.00 89 1018.4
20260506141704 12 266 1.6 3.2 0.00 0.00 0.00 89 1018.3
20260506141204 12 276 0.0 3.2 0.00 0.00 0.00 89 1018.1
20260506140704 12 264 0.0 3.2 0.00 0.00 0.00 89 1018.2
20260506140204 12 221 0.0 0.0 0.00 0.00 0.00 89 1018.1
20260506135704 12 221 0.0 0.0 0.00 0.00 0.00 89 1018.1
20260506133704 12 115 0.0 3.2 0.00 0.00 0.00 89 1018.0
20260506132706 12 120 1.6 9.7 0.00 0.00 0.00 88 1018.0
20260506132204 12 115 0.0 3.2 0.00 0.00 0.00 88 1017.9
20260506130704 12 315 0.0 1.6 0.00 0.00 0.00 88 1017.8
20260506130204 12 107 0.0 1.6 0.00 0.00 0.00 88 1017.4
20260506125704 12 107 0.0 3.2 0.00 0.00 0.00 88 1017.4
20260506123704 12 143 0.0 3.2 0.00 0.00 0.00 88 1017.5
20260506122704 12 148 0.0 3.2 0.00 0.00 0.00 88 1017.4
20260506121704 12 318 0.0 0.0 0.00 0.00 0.00 88 1017.4
20260506120704 12 319 0.0 0.0 0.00 0.00 0.00 87 1017.4
20260506120204 12 94 0.0 0.0 0.00 0.00 0.00 87 1017.4
20260506115704 12 94 0.0 0.0 0.00 0.00 0.00 87 1017.4
20260506115203 12 94 0.0 0.0 0.00 0.00 0.00 87 1017.2
20260506114704 12 281 0.0 0.0 0.00 0.00 0.00 87 1017.2
20260506114204 12 103 0.0 0.0 0.00 0.00 0.00 87 1017.2
20260506113704 12 103 0.0 0.0 0.00 0.00 0.00 87 1017.2
20260506113203 12 103 0.0 1.6 0.00 0.00 0.00 88 1017.1
20260506112704 12 106 0.0 1.6 0.00 0.00 0.00 87 1017.0
20260506112203 12 205 0.0 3.2 0.00 0.00 0.00 88 1017.0
20260506111704 12 108 0.0 1.6 0.00 0.00 0.00 88 1017.1
20260506111204 12 108 0.0 1.6 0.00 0.00 0.00 88 1017.0
20260506110704 12 108 0.0 1.6 0.00 0.00 0.00 88 1017.0
20260506110204 12 108 0.0 8.0 0.00 0.00 0.00 88 1016.9
20260506105704 12 278 0.0 3.2 0.00 0.00 0.00 87 1016.8
20260506104704 12 277 0.0 0.0 0.00 0.00 0.00 87 1016.8
20260506103704 12 277 0.0 3.2 0.00 0.00 0.00 87 1016.8
20260506103204 12 276 0.0 3.2 0.00 0.00 0.00 87 1016.7
20260506102704 12 249 6.4 8.0 0.00 0.00 0.00 87 1016.7
20260506101704 12 282 0.0 3.2 0.00 0.00 0.00 87 1016.7
20260506101204 12 282 0.0 3.2 0.00 0.00 0.00 87 1016.6
20260506100704 12 287 0.0 3.2 0.00 0.00 0.00 88 1016.5
20260506100204 12 243 0.0 3.2 0.00 0.00 0.00 88 1016.5
20260506095703 12 252 0.0 0.0 0.00 0.00 0.00 89 1016.4
20260506094704 12 251 1.6 8.0 0.00 0.00 0.00 89 1016.3
20260506094204 12 259 0.0 3.2 0.00 0.00 0.00 90 1016.3
20260506093204 11 78 0.0 1.6 0.00 0.00 0.00 92 1016.2
20260506092704 11 79 0.0 0.0 0.00 0.00 0.00 92 1016.2
20260506092204 11 79 0.0 0.0 0.00 0.00 0.00 93 1016.2
20260506091703 11 79 0.0 0.0 0.00 0.00 0.00 92 1016.1
20260506091204 11 79 0.0 0.0 0.00 0.00 0.00 92 1016.1
20260506090704 11 79 0.0 0.0 0.00 0.00 0.00 92 1016.1
20260506090204 11 79 0.0 0.0 0.00 0.00 0.00 93 1016.1
20260506085704 11 79 0.0 0.0 0.00 0.00 0.00 93 1016.1
20260506085204 11 79 0.0 0.0 0.00 0.00 0.00 93 1016.0
20260506084704 11 79 0.0 0.0 0.00 0.00 0.00 92 1015.9
20260506084204 11 79 0.0 0.0 0.00 0.00 0.00 93 1015.9
20260506083704 11 79 0.0 0.0 0.00 0.00 0.00 93 1015.8
20260506083204 11 79 0.0 0.0 0.00 0.00 0.00 93 1015.7
20260506082704 11 79 0.0 0.0 0.00 0.00 0.00 93 1015.7
20260506081204 11 79 0.0 0.0 0.00 0.00 0.00 92 1015.6
20260506080704 11 79 0.0 0.0 0.00 0.00 0.00 92 1015.5
20260506080204 11 79 0.0 0.0 0.00 0.00 0.00 92 1015.6
20260506073204 11 79 0.0 0.0 0.00 0.00 0.00 91 1015.4
20260506072704 11 79 0.0 0.0 0.00 0.00 0.00 91 1015.4
20260506072204 11 79 0.0 0.0 0.00 0.00 0.00 91 1015.4
20260506071704 11 79 0.0 0.0 0.00 0.00 0.00 91 1015.4
20260506071204 12 79 0.0 0.0 0.00 0.00 0.00 91 1015.4
20260506070704 12 79 0.0 0.0 0.00 0.00 0.00 91 1015.4
20260506070204 12 79 0.0 0.0 0.00 0.00 0.00 91 1015.3
20260506061705 12 79 0.0 0.0 0.00 0.00 0.00 90 1015.0
20260506061204 12 79 0.0 0.0 0.00 0.00 0.00 90 1014.9
20260506060203 12 79 0.0 0.0 0.00 0.00 0.00 89 1014.8
20260506051203 13 79 0.0 0.0 0.00 0.00 0.00 87 1014.3
20260506050704 13 79 0.0 0.0 0.00 0.00 0.00 87 1014.3
20260506050204 13 79 0.0 0.0 0.00 0.00 0.00 86 1014.2
20260506044204 13 79 0.0 1.6 0.00 0.00 0.00 86 1014.1